FW0597 Weather Reports


Display with metric or nautical units.
time (UTC)temp
F
wind
direction
speed
MPH
gust
MPH
rain 1hr
in
rain 24hr
in
rain mn
in
humidity
%
barometer
mb
20190825131030 66 2 0.0 0.0 0.00 0.00 0.00 96 893.4
20190825130525 66 357 0.0 0.0 0.00 0.00 0.00 96 893.0
20190825130020 66 345 0.0 2.0 0.00 0.00 0.00 96 893.0
20190825125520 65 357 0.0 2.0 0.00 0.00 0.00 96 893.0
20190825125009 65 347 0.0 2.0 0.00 0.00 0.00 97 893.0
20190825124505 65 355 0.0 2.0 0.00 0.00 0.00 97 892.7
20190825123959 65 338 0.0 2.0 0.00 0.00 0.00 97 893.0
20190825123454 65 348 0.0 2.0 0.00 0.00 0.00 97 892.7
20190825122949 65 345 0.0 2.0 0.00 0.00 0.00 97 892.4
20190825122444 65 324 0.0 2.0 0.00 0.00 0.00 97 892.7
20190825121938 65 328 0.0 0.0 0.00 0.00 0.00 97 892.4
20190825121434 65 353 0.0 0.0 0.00 0.00 0.00 96 892.4
20190825120928 65 359 0.0 0.0 0.00 0.00 0.00 96 892.4
20190825120423 65 359 0.0 0.0 0.00 0.00 0.00 96 892.4
20190825115917 65 359 0.0 0.0 0.00 0.00 0.00 96 892.4
20190825115413 65 359 0.0 0.0 0.00 0.00 0.00 96 892.0
20190825114908 65 355 0.0 0.0 0.00 0.00 0.00 96 892.0
20190825114404 65 336 0.0 0.0 0.00 0.00 0.00 96 892.4
20190825113857 65 346 0.0 0.0 0.00 0.00 0.00 96 892.0
20190825113351 65 357 0.0 0.0 0.00 0.00 0.00 96 892.0
20190825112846 65 357 0.0 0.0 0.00 0.00 0.00 96 892.4
20190825112341 66 357 0.0 0.0 0.00 0.00 0.00 96 892.0
20190825111836 66 357 0.0 0.0 0.00 0.00 0.00 96 892.0
20190825111331 66 357 0.0 0.0 0.00 0.00 0.00 96 892.0
20190825110825 66 357 0.0 0.0 0.00 0.00 0.00 96 892.0
20190825110320 67 357 0.0 0.0 0.00 0.00 0.00 96 892.0
20190825105815 67 358 0.0 0.0 0.00 0.00 0.00 94 892.0
20190825105310 67 354 0.0 0.0 0.00 0.00 0.00 94 892.0
20190825104805 67 355 0.0 0.0 0.00 0.00 0.00 94 892.0
20190825104259 67 357 0.0 0.0 0.00 0.00 0.00 94 892.0
20190825103755 67 14 0.0 0.0 0.00 0.00 0.00 94 892.0
20190825103249 67 15 0.0 0.0 0.00 0.00 0.00 94 892.0
20190825102744 68 24 0.0 0.0 0.00 0.00 0.00 94 892.4
20190825102239 68 16 0.0 0.0 0.00 0.00 0.00 94 892.4
20190825101733 68 21 0.0 0.0 0.00 0.00 0.00 94 891.7
20190825101229 68 19 0.0 0.0 0.00 0.00 0.00 94 892.0
20190825100723 68 305 0.0 0.0 0.00 0.00 0.00 93 892.0
20190825100218 68 327 0.0 0.0 0.00 0.00 0.00 93 892.0
20190825095713 68 359 0.0 2.0 0.00 0.00 0.00 93 892.0
20190825095207 68 351 0.0 2.0 0.00 0.00 0.00 93 892.0
20190825094702 68 320 0.0 2.0 0.00 0.00 0.00 93 892.0
20190825094202 68 322 0.0 2.0 0.00 0.00 0.00 92 892.4
20190825093653 68 337 0.0 2.0 0.00 0.00 0.00 92 892.4
20190825093147 68 338 0.0 0.0 0.00 0.00 0.00 92 892.7
20190825092642 69 359 0.0 0.0 0.00 0.00 0.00 92 892.7
20190825092137 69 8 0.0 0.0 0.00 0.00 0.00 92 892.4
20190825091632 69 36 0.0 0.0 0.00 0.00 0.00 92 892.7
20190825091126 69 68 0.0 0.0 0.00 0.00 0.00 92 892.4
20190825090622 69 72 0.0 0.0 0.00 0.00 0.00 91 892.7
20190825090117 69 73 0.0 0.0 0.00 0.00 0.00 91 893.4
20190825085611 69 67 0.0 0.0 0.00 0.00 0.00 91 893.0
20190825085111 69 55 0.0 0.0 0.00 0.00 0.00 91 893.0
20190825084601 70 53 0.0 0.0 0.00 0.00 0.00 91 893.4
20190825084055 70 52 0.0 0.0 0.00 0.00 0.00 90 893.4
20190825083551 70 52 0.0 0.0 0.00 0.00 0.00 90 893.7
20190825083046 70 52 0.0 0.0 0.00 0.00 0.00 89 893.7
20190825082540 70 52 0.0 2.0 0.00 0.00 0.00 89 893.4
20190825082035 71 56 0.0 2.0 0.00 0.00 0.00 88 893.4
20190825081530 71 58 0.0 0.0 0.00 0.00 0.00 87 893.4
20190825081024 71 57 0.0 0.0 0.00 0.00 0.00 87 893.4
20190825080519 71 53 0.0 0.0 0.00 0.00 0.00 86 893.4
20190825080014 72 60 0.0 5.0 0.00 0.00 0.00 85 893.7
20190825075510 72 98 0.0 5.0 0.00 0.00 0.00 85 893.7
20190825075004 72 32 0.0 2.0 0.00 0.00 0.00 85 893.7
20190825074459 72 94 0.0 2.0 0.00 0.00 0.00 83 893.7
20190825073954 72 71 1.0 5.0 0.00 0.00 0.00 83 894.0
20190825073449 72 72 0.0 5.0 0.00 0.00 0.00 83 894.0
20190825072943 72 103 0.0 5.0 0.00 0.00 0.00 83 893.7
20190825072438 72 96 0.0 5.0 0.00 0.00 0.00 83 894.0
20190825071933 72 96 1.0 5.0 0.00 0.00 0.00 83 894.0
20190825071427 72 94 0.0 5.0 0.00 0.00 0.00 83 894.4
20190825070923 72 112 0.0 5.0 0.00 0.00 0.00 83 894.0
20190825070417 72 120 0.0 5.0 0.00 0.00 0.00 83 894.0
20190825065913 72 88 0.0 5.0 0.00 0.00 0.00 83 894.0
20190825065408 72 103 0.0 5.0 0.00 0.00 0.00 83 894.4
20190825064902 72 133 1.0 5.0 0.00 0.00 0.00 83 894.0
20190825064357 72 93 0.0 5.0 0.00 0.00 0.00 83 894.4
20190825063851 72 82 0.0 5.0 0.00 0.00 0.00 82 894.4
20190825063347 72 114 2.0 5.0 0.00 0.00 0.00 82 894.4
20190825062841 72 110 0.0 2.0 0.00 0.00 0.00 81 894.4
20190825062336 72 90 0.0 5.0 0.00 0.00 0.00 81 894.4
20190825061831 73 90 2.0 5.0 0.00 0.00 0.00 81 894.7
20190825061326 73 123 0.0 2.0 0.00 0.00 0.00 80 894.7
20190825060820 73 77 0.0 5.0 0.00 0.00 0.00 80 894.7
20190825060315 73 77 0.0 5.0 0.00 0.00 0.00 79 894.7
20190825055810 73 79 0.0 5.0 0.00 0.00 0.00 79 894.7
20190825055305 73 99 0.0 5.0 0.00 0.00 0.00 78 894.7
20190825054800 73 97 0.0 5.0 0.00 0.00 0.00 78 894.7
20190825054255 74 93 3.0 5.0 0.00 0.00 0.00 78 894.7
20190825053749 74 100 0.0 5.0 0.00 0.00 0.00 77 894.7
20190825053244 74 97 0.0 5.0 0.00 0.00 0.00 77 895.1
20190825052740 74 91 0.0 5.0 0.00 0.00 0.00 77 894.4
20190825052234 74 79 0.0 5.0 0.00 0.00 0.00 76 894.7
20190825051729 75 144 3.0 5.0 0.00 0.00 0.00 75 894.7
20190825051223 75 107 0.0 5.0 0.00 0.00 0.00 75 895.1
20190825050718 75 103 0.0 8.0 0.00 0.00 0.00 74 894.7
20190825050213 75 108 0.0 8.0 0.00 0.00 0.00 73 894.7
20190825045708 75 94 0.0 0.0 0.00 0.00 0.00 73 894.7
20190825045208 75 122 0.0 8.0 0.00 0.00 0.00 73 894.7
20190825044657 75 100 0.0 8.0 0.00 0.00 0.00 73 894.7
20190825044152 75 107 0.0 0.0 0.00 0.00 0.00 73 894.7
20190825043652 75 100 0.0 0.0 0.00 0.00 0.00 73 894.7
20190825043142 75 93 0.0 0.0 0.00 0.00 0.00 71 894.7
20190825042637 75 112 0.0 0.0 0.00 0.00 0.00 71 895.1
20190825042132 75 89 0.0 0.0 0.00 0.00 0.00 71 895.4
20190825041626 75 89 0.0 8.0 0.00 0.00 0.00 71 895.4
20190825041121 75 88 0.0 8.0 0.00 0.00 0.00 71 895.1
20190825040617 75 88 0.0 0.0 0.00 0.00 0.00 71 895.4
20190825040112 75 88 0.0 0.0 0.00 0.00 0.00 72 895.1
20190825035606 75 96 0.0 0.0 0.00 0.00 0.00 72 895.1
20190825035101 75 82 0.0 0.0 0.00 0.00 0.00 74 895.7
20190825034556 75 87 0.0 5.0 0.00 0.00 0.00 74 895.4
20190825034056 75 92 0.0 5.0 0.00 0.00 0.00 74 895.4
20190825033545 75 79 0.0 0.0 0.00 0.00 0.00 74 895.4
20190825033040 75 91 0.0 0.0 0.00 0.00 0.00 74 895.4
20190825032535 75 77 0.0 0.0 0.00 0.00 0.00 74 895.4
20190825032030 75 114 0.0 0.0 0.00 0.00 0.00 73 895.7
20190825031525 75 81 0.0 0.0 0.00 0.00 0.00 73 895.4
20190825031019 75 75 0.0 0.0 0.00 0.00 0.00 75 895.4
20190825030515 75 49 0.0 0.0 0.00 0.00 0.00 75 895.4
20190825030009 75 37 0.0 0.0 0.00 0.00 0.00 75 895.7
20190825025504 75 39 0.0 0.0 0.00 0.00 0.00 75 895.4
20190825024959 75 31 0.0 0.0 0.00 0.00 0.00 75 895.1
20190825024453 75 347 0.0 0.0 0.00 0.00 0.00 75 895.4
20190825023949 76 15 0.0 0.0 0.00 0.00 0.00 75 895.4
20190825023444 77 29 0.0 0.0 0.00 0.00 0.00 74 895.1
20190825022938 77 55 0.0 0.0 0.00 0.00 0.00 72 895.1
20190825022433 78 40 0.0 0.0 0.00 0.00 0.00 70 895.1
20190825021928 78 22 0.0 0.0 0.00 0.00 0.00 69 894.4
20190825021423 79 71 0.0 0.0 0.00 0.00 0.00 67 894.0
20190825020918 79 104 0.0 0.0 0.00 0.00 0.00 67 893.7
20190825020412 79 99 0.0 8.0 0.00 0.00 0.00 66 893.4
20190825015908 79 87 0.0 10.0 0.00 0.00 0.00 65 893.7
20190825015402 80 93 5.0 10.0 0.00 0.00 0.00 64 893.4
20190825014857 80 106 5.0 10.0 0.00 0.00 0.00 64 893.7
20190825014352 80 79 0.0 0.0 0.00 0.00 0.00 63 893.7
20190825013846 80 91 0.0 0.0 0.00 0.00 0.00 62 893.7
20190825013342 81 95 0.0 0.0 0.00 0.00 0.00 61 893.4
20190825012836 81 96 0.0 0.0 0.00 0.00 0.00 61 893.7
20190825012330 81 98 0.0 0.0 0.00 0.00 0.00 60 894.0
20190825011825 81 90 0.0 8.0 0.00 0.00 0.00 59 894.0
20190825011321 82 111 0.0 10.0 0.00 0.00 0.00 59 893.7
20190825010816 82 96 0.0 10.0 0.00 0.00 0.00 58 893.4
20190825010310 82 97 6.0 10.0 0.00 0.00 0.00 58 893.0
20190825005805 83 121 0.0 10.0 0.00 0.00 0.00 58 893.0
20190825005300 83 101 2.0 10.0 0.00 0.00 0.00 57 893.4
20190825004754 83 117 4.0 10.0 0.00 0.00 0.00 56 893.0
20190825004250 84 109 3.0 13.0 0.00 0.00 0.00 55 893.0
20190825003745 84 128 5.0 13.0 0.00 0.00 0.00 54 893.4
20190825003239 84 101 0.0 13.0 0.00 0.00 0.00 53 893.4
20190825002734 85 90 4.0 15.0 0.00 0.00 0.00 51 893.4
20190825002229 85 142 7.0 15.0 0.00 0.00 0.00 51 893.4
20190825001724 85 89 8.0 15.0 0.00 0.00 0.00 51 893.4
20190825001218 85 117 9.0 15.0 0.00 0.00 0.00 50 893.4
20190825000713 84 81 5.0 15.0 0.00 0.00 0.00 51 893.4
20190825000209 84 99 8.0 15.0 0.00 0.00 0.00 51 893.0
20190824235702 84 144 9.0 17.0 0.00 0.00 0.00 50 893.0
20190824235158 83 123 8.0 17.0 0.00 0.00 0.00 51 893.0
20190824234652 83 104 6.0 13.0 0.00 0.00 0.00 51 893.0
20190824234146 83 87 2.0 10.0 0.00 0.00 0.00 54 893.4
20190824233641 83 114 8.0 15.0 0.00 0.00 0.00 55 893.4
20190824233136 83 129 8.0 15.0 0.00 0.00 0.00 55 893.4
20190824232632 83 157 9.0 15.0 0.00 0.00 0.00 58 893.4
20190824232126 83 122 9.0 13.0 0.00 0.00 0.00 55 893.7
20190824231621 83 111 8.0 15.0 0.00 0.00 0.00 53 893.7
20190824231115 84 133 9.0 17.0 0.00 0.00 0.00 54 893.7
20190824230611 84 103 9.0 17.0 0.00 0.00 0.00 53 894.0
20190824230105 84 117 8.0 17.0 0.00 0.00 0.00 52 893.7
20190824225600 84 131 9.0 17.0 0.00 0.00 0.00 52 893.7
20190824225055 84 126 14.0 17.0 0.00 0.00 0.00 52 893.7
20190824224550 85 106 6.0 10.0 0.00 0.00 0.00 51 894.0
20190824224044 85 130 6.0 10.0 0.00 0.00 0.00 50 894.0
20190824223539 85 109 7.0 13.0 0.00 0.00 0.00 50 894.0
20190824223034 85 104 6.0 13.0 0.00 0.00 0.00 48 894.0
20190824222528 86 108 7.0 13.0 0.00 0.00 0.00 48 894.0
20190824222023 86 87 4.0 13.0 0.00 0.00 0.00 47 893.7
20190824221523 87 99 6.0 13.0 0.00 0.00 0.00 46 893.7
20190824221013 87 131 5.0 13.0 0.00 0.00 0.00 44 893.4
20190824220507 88 91 6.0 13.0 0.00 0.00 0.00 43 893.4
20190824220003 89 138 6.0 10.0 0.00 0.00 0.00 41 893.4
20190824215457 89 108 6.0 13.0 0.00 0.00 0.00 33 893.4
20190824214952 90 82 1.0 15.0 0.00 0.00 0.00 34 893.4
20190824214447 90 97 8.0 15.0 0.00 0.00 0.00 34 893.4
20190824213942 90 146 0.0 10.0 0.00 0.00 0.00 29 893.4
20190824213437 90 66 0.0 8.0 0.00 0.00 0.00 29 893.4
20190824212931 90 146 0.0 13.0 0.00 0.00 0.00 29 893.7
20190824212431 90 151 6.0 13.0 0.00 0.00 0.00 29 894.0
20190824211920 90 33 0.0 10.0 0.00 0.00 0.00 29 893.7
20190824211415 91 325 1.0 10.0 0.00 0.00 0.00 30 893.7
20190824210911 91 36 0.0 10.0 0.00 0.00 0.00 30 893.7
20190824210405 91 111 4.0 13.0 0.00 0.00 0.00 30 893.7
20190824205900 91 87 0.0 13.0 0.00 0.00 0.00 29 893.7
20190824205355 91 240 0.0 13.0 0.00 0.00 0.00 29 893.7
20190824204849 91 121 9.0 20.0 0.00 0.00 0.00 32 893.7
20190824204344 91 141 8.0 20.0 0.00 0.00 0.00 29 893.7
20190824203843 91 134 4.0 13.0 0.00 0.00 0.00 29 893.7
20190824203333 91 111 6.0 13.0 0.00 0.00 0.00 31 894.0
20190824202829 90 82 2.0 17.0 0.00 0.00 0.00 29 894.0
20190824202323 90 52 0.0 17.0 0.00 0.00 0.00 30 893.7
20190824201822 90 307 1.0 13.0 0.00 0.00 0.00 31 894.0
20190824201313 90 140 1.0 13.0 0.00 0.00 0.00 29 894.0
20190824200807 90 86 1.0 15.0 0.00 0.00 0.00 30 894.0
20190824200302 90 105 6.0 15.0 0.00 0.00 0.00 29 893.7
20190824195757 90 24 0.0 13.0 0.00 0.00 0.00 30 894.0
20190824195251 90 115 7.0 17.0 0.00 0.00 0.00 29 894.4
20190824194746 90 144 6.0 17.0 0.00 0.00 0.00 30 894.0
20190824194242 89 88 6.0 13.0 0.00 0.00 0.00 30 894.0
20190824193736 89 73 5.0 13.0 0.00 0.00 0.00 30 894.4
20190824193231 89 61 0.0 17.0 0.00 0.00 0.00 30 894.4
20190824192725 89 141 5.0 17.0 0.00 0.00 0.00 30 894.0
20190824192221 89 21 0.0 13.0 0.00 0.00 0.00 30 894.4
20190824191720 89 148 2.0 13.0 0.00 0.00 0.00 29 894.7
20190824191210 89 172 8.0 10.0 0.00 0.00 0.00 29 894.7
20190824190705 89 126 4.0 15.0 0.00 0.00 0.00 30 895.1
20190824190159 88 93 7.0 17.0 0.00 0.00 0.00 31 894.7
20190824185654 88 117 9.0 13.0 0.00 0.00 0.00 30 894.7
20190824185150 87 136 1.0 10.0 0.00 0.00 0.00 31 894.7
20190824184644 86 70 4.0 10.0 0.00 0.00 0.00 31 894.7
20190824184143 86 57 0.0 13.0 0.00 0.00 0.00 32 895.1
20190824183634 85 94 0.0 13.0 0.00 0.00 0.00 39 895.1
20190824183129 85 134 9.0 15.0 0.00 0.00 0.00 42 895.1
20190824182623 84 96 8.0 15.0 0.00 0.00 0.00 44 894.7
20190824182117 84 95 8.0 13.0 0.00 0.00 0.00 43 895.1
20190824181612 84 102 6.0 13.0 0.00 0.00 0.00 43 895.1
20190824181107 83 145 7.0 13.0 0.00 0.00 0.00 45 895.1
20190824180602 83 135 8.0 13.0 0.00 0.00 0.00 44 895.1
20190824180056 83 148 8.0 15.0 0.00 0.00 0.00 44 895.4
20190824175551 82 148 5.0 15.0 0.00 0.00 0.00 46 895.4
20190824175047 82 110 5.0 15.0 0.00 0.00 0.00 45 895.4
20190824174541 81 101 4.0 15.0 0.00 0.00 0.00 47 895.4
20190824174036 80 133 7.0 15.0 0.00 0.00 0.00 49 895.4
20190824173531 80 82 2.0 13.0 0.00 0.00 0.00 50 895.4
20190824173025 79 102 7.0 13.0 0.00 0.00 0.00 49 895.7
20190824172520 79 103 8.0 15.0 0.00 0.00 0.00 51 895.7
20190824172015 78 142 5.0 15.0 0.00 0.00 0.00 52 895.7
20190824171511 78 114 7.0 13.0 0.00 0.00 0.00 53 895.7
20190824171005 78 105 5.0 13.0 0.00 0.00 0.00 54 896.1
20190824170459 77 109 9.0 13.0 0.00 0.00 0.00 55 896.4
20190824165954 77 154 7.0 13.0 0.00 0.00 0.00 54 896.4
20190824165449 77 100 6.0 13.0 0.00 0.00 0.00 56 895.7
20190824164945 76 127 6.0 15.0 0.00 0.00 0.00 55 896.1
20190824164438 76 114 5.0 10.0 0.00 0.00 0.00 55 896.4
20190824163938 76 155 2.0 13.0 0.00 0.00 0.00 57 896.4
20190824163428 76 82 6.0 15.0 0.00 0.00 0.00 57 896.8
20190824162922 75 143 5.0 15.0 0.00 0.00 0.00 59 896.4
20190824162417 75 110 9.0 13.0 0.00 0.00 0.00 59 896.8
20190824161912 75 85 4.0 13.0 0.00 0.00 0.00 59 896.8
20190824161408 75 94 5.0 13.0 0.00 0.00 0.00 59 896.8
20190824160902 74 129 4.0 13.0 0.00 0.00 0.00 59 897.4
20190824160357 74 85 0.0 10.0 0.00 0.00 0.00 61 897.1
20190824155852 74 94 0.0 8.0 0.00 0.00 0.00 60 897.4
20190824155346 73 95 0.0 5.0 0.00 0.00 0.00 62 897.1
20190824154842 73 77 0.0 8.0 0.00 0.00 0.00 63 897.4
20190824154336 73 103 0.0 8.0 0.00 0.00 0.00 63 897.4
20190824153831 73 88 0.0 8.0 0.00 0.00 0.00 63 897.4
20190824153326 72 86 0.0 0.0 0.00 0.00 0.00 64 897.4
20190824152820 72 91 0.0 0.0 0.00 0.00 0.00 64 897.4
20190824152315 72 55 0.0 8.0 0.00 0.00 0.00 64 897.4
20190824151811 71 78 0.0 8.0 0.00 0.00 0.00 66 897.4
20190824151305 71 50 0.0 0.0 0.00 0.00 0.00 68 897.8
20190824150800 71 82 0.0 0.0 0.00 0.00 0.00 68 897.8
20190824150255 70 29 0.0 0.0 0.00 0.00 0.00 68 898.1
20190824145750 69 68 0.0 0.0 0.00 0.00 0.00 69 897.8
20190824145245 69 81 0.0 0.0 0.00 0.00 0.00 70 897.8
20190824144739 69 91 0.0 0.0 0.00 0.00 0.00 73 897.8
20190824144234 68 93 0.0 0.0 0.00 0.00 0.00 75 897.8
20190824143728 68 98 0.0 0.0 0.00 0.00 0.00 76 897.4
20190824143223 67 65 0.0 0.0 0.00 0.00 0.00 77 897.4
20190824142718 67 78 0.0 0.0 0.00 0.00 0.00 78 897.4
20190824142213 66 83 0.0 0.0 0.00 0.00 0.00 81 897.8
20190824141708 66 77 0.0 0.0 0.00 0.00 0.00 83 897.8
20190824141203 66 71 0.0 0.0 0.00 0.00 0.00 84 897.8
20190824140657 66 83 0.0 0.0 0.00 0.00 0.00 84 897.8
20190824140152 65 62 0.0 0.0 0.00 0.00 0.00 86 897.8
20190824135647 65 60 0.0 0.0 0.00 0.00 0.00 88 897.8
20190824135141 65 58 0.0 0.0 0.00 0.00 0.00 89 898.1
20190824134637 64 77 0.0 0.0 0.00 0.00 0.00 92 897.8
20190824134132 63 96 0.0 0.0 0.00 0.00 0.00 93 897.8
20190824133631 62 62 0.0 0.0 0.00 0.00 0.00 94 898.1
20190824133121 62 79 0.0 0.0 0.00 0.00 0.00 94 898.1
20190824132616 61 45 0.0 0.0 0.00 0.00 0.00 94 897.8
20190824132110 60 45 0.0 0.0 0.00 0.00 0.00 95 897.8
20190824131605 60 36 0.0 0.0 0.00 0.00 0.00 95 898.1